Simultaneous Nadir Overpasses (SNOs) Predictions

Prediction of SNOs between AQUA and METOP-B Satellite Orbit:

Table of predicted SNOs for the next 14.0 days since TLE Epoch: 5/10/2019
Index Date (AQUA) Time (AQUA) Lat,Lon (AQUA) SZA (AQUA ) Date (METOP-B) Time (METOP-B) Lat,Lon (METOP-B) SZA (METOP-B ) Distance(km) Time Diff (sec)
1 05/11/2019 15:06:17 -73.71, 127.99 124.24 05/11/2019 15:05:04 -73.64, 127.36 124.28 21.05 73
2 05/11/2019 15:55:48 73.86, -64.70 55.91 05/11/2019 15:55:39 73.87, -64.77 55.93 2.55 9
3 05/11/2019 16:45:15 -73.97, 102.70 123.99 05/11/2019 16:46:19 -73.97, 102.80 123.99 3.00 64
4 05/14/2019 10:40:33 -73.81,-165.79 124.83 05/14/2019 10:39:24 -73.80,-165.87 124.84 2.80 69
5 05/14/2019 11:30:02 73.86, 1.74 55.21 05/14/2019 11:30:02 73.87, 1.64 55.23 3.19 0
6 05/14/2019 12:19:29 -73.96, 169.15 124.69 05/14/2019 12:20:42 -73.98, 169.22 124.69 2.59 73
7 05/17/2019 06:14:47 -73.81, -99.36 125.49 05/17/2019 06:13:47 -73.80, -99.46 125.49 3.54 60
8 05/17/2019 07:04:17 73.92, 68.04 54.62 05/17/2019 07:04:24 73.92, 68.16 54.61 3.61 7
9 05/17/2019 07:53:49 -74.28,-125.13 125.01 05/17/2019 07:54:59 -74.27,-123.63 125.07 45.07 70
10 05/20/2019 01:49:00 -73.82, -32.94 126.09 05/20/2019 01:48:08 -73.84, -32.94 126.07 2.31 52
11 05/20/2019 02:38:29 73.88, 134.57 53.96 05/20/2019 02:38:46 73.91, 134.55 53.99 2.86 17
12 05/20/2019 03:28:09 -74.64, -59.57 125.23 05/20/2019 03:29:14 -74.61, -56.35 125.36 95.12 65
13 05/22/2019 21:23:14 -73.84, 33.47 126.65 05/22/2019 21:22:31 -73.83, 33.44 126.64 0.99 43
14 05/22/2019 22:12:43 73.90,-159.04 53.42 05/22/2019 22:13:09 73.89,-159.08 53.41 1.65 26




NCC Satellite Simultaneous Nadir Overpasses (SNOs) Prediction Service
